Página principal
METAR-TAF:

METAR-TAF

Aeroportos :

El Borma, Tunísia

latitude: 31-41N, longitude: 009-10E, altura: 258 m

Observação actual do tempo

O boletim foi feito há 7 horas e 22 minutos, às 12:00 UTC
Vento 12 kt de es-sudeste
Temperatura 23°C
Humidade 47%
Pressão 1023 hPa
Visibilidade 10 km ou mais
sem nuvens abaixo de 1500 metros e sem cumulonimbus

METAR: DTTR 141200Z 12012KT CAVOK 23/11 Q1023 NOSIG

Hora: 20:22 (19:22 UTC)


TAF: em falta

Observações e previsões do tempo de mais de 4000 aeroportos (mensagens METAR e TAF).

As estações disponíveis são os pontos amarelos e vermelhos sobre o mapa.

Mova o rato sobre o mapa para ver o nome da estação.

Depois clique no ponto para visualizar as observações e previsões meteorológicas.

Para alterar o mapa : clique nos botões verdes com uma cruz preta para aumentar o zoom; no botão verde com uma pitada de zoom; ou nas setas verdes para mapas adjacentes.


METAR-TAF: